Lid_Strength_Index
-0 -0 -0 -0 -0 -0 -0 -1 -1 -1 -1 -0 -0 -0 -0 0 -0 -0 -0 0 1 0 0 0 0 0 1 0 0 0 1 2 3 2 0 -0 -0 -0 -1 -2 -2 -1 -1
-0 -0 -0 -1 -1 -0 -0 -1 -1 -0 -1 -1 -0 -0 0 -0 -0 -0 1 1 1 1 1 1 1 0 0 0 1 1 1 1 2 3 1 1 1 -0 -0 -0 -0 -1 -1
-0 -0 -0 -0 -0 -0 -0 -0 -1 -0 -0 -0 -0 0 0 0 -0 0 0 0 1 0 0 1 1 1 1 1 1 1 1 1 1 2 3 1 1 0 0 -0 -0 -1 -2
1 1 0 0 0 0 1 1 1 0 0 0 0 -0 -0 -0 -0 0 0 0 0 0 1 0 0 1 0 0 0 0 1 1 1 2 2 2 1 0 0 1 1 -0 0
0 1 1 1 0 1 0 0 0 -0 0 -0 -0 -0 -1 -0 0 0 0 0 0 1 0 0 0 0 0 0 0 0 1 2 2 2 3 2 2 2 2 1 2 2 1
1 1 1 1 1 1 0 0 -0 0 0 0 -0 -0 0 0 1 2 0 0 0 1 1 0 0 0 0 0 0 0 1 1 2 2 2 3 3 2 1 2 2 3 4
1 1 1 2 1 0 -0 -0 1 0 -0 0 0 1 0 0 3 3 2 0 0 1 1 0 0 0 -0 0 1 1 1 1 2 1 2 2 2 1 2 1 2 2 3
1 1 1 1 1 1 1 0 0 0 0 0 0 0 0 1 3 4 3 -0 0 0 -0 -0 0 0 0 1 1 2 1 0 -0 -0 0 0 0 -0 0 1 1 2 1
1 1 1 1 1 1 1 1 0 1 0 0 0 0 0 0 4 5 3 0 1 0 0 -0 0 0 5 4 2 1 1 1 2 3 3 4 4 3 1 0 2 3 3
1 1 0 1 1 1 0 0 -0 0 0 0 0 -0 1 0 4 5 3 0 1 1 -0 0 2 2 5 4 2 1 2 1 1 1 -0 1 1 1 1 -0 1 3 3
0 0 1 0 0 -0 -0 -0 -0 0 0 1 1 0 0 1 3 5 5 0 1 1 1 1 0 5 6 5 6 0 1 0 1 0 0 0 0 0 0 -0 -1 1 3
0 0 1 0 -0 0 -0 -0 0 0 1 1 1 1 1 1 4 3 6 5 3 1 2 1 1 6 7 6 4 5 5 2 0 1 1 1 1 1 0 -0 -0 -1 -1
0 0 0 0 1 0 0 0 1 1 1 2 3 3 3 1 1 3 5 6 4 1 0 4 6 7 7 6 6 6 7 0 0 1 2 1 1 0 -0 -0 -1 -2 -2
1 0 0 1 2 1 2 2 2 3 3 3 4 5 4 3 2 1 -0 -0 4 1 3 1 2 3 3 2 2 2 1 0 1 1 1 1 0 0 1 -0 1 1 1
1 0 1 1 1 2 1 1 2 1 4 3 4 5 5 5 2 6 6 1 1 3 2 0 1 1 1 1 1 0 0 0 1 1 1 1 1 1 1 0 0 1 2
1 1 1 2 2 2 2 2 6 6 7 7 9 7 5 6 8 8 7 7 8 8 1 1 2 2 2 1 1 1 0 1 1 0 0 1 2 2 2 1 0 1 2
2 1 1 1 2 2 2 2 3 4 7 8 8 8 9 8 9 8 7 8 8 7 1 1 1 2 1 1 1 1 1 0 -1 0 1 1 1 1 1 1 1 1 1
2 5 2 1 1 1 2 2 2 3 3 2 7 6 8 9 8 8 8 7 1 2 1 2 2 1 2 1 2 1 1 0 0 0 0 0 0 1 1 1 1 1 1
2 2 2 2 1 1 1 1 2 2 2 2 1 6 7 9 8 8 8 1 2 1 1 1 1 1 1 1 1 0 0 1 0 1 0 0 0 1 1 1 1 4 3
2 5 5 2 2 2 1 1 1 2 2 2 2 2 2 3 2 1 1 1 1 1 1 1 1 0 0 1 0 0 1 1 1 0 0 0 0 0 1 1 1 1 1
2 2 5 2 2 2 2 2 1 1 1 2 2 3 11 2 3 2 1 1 1 1 1 1 0 1 0 0 1 0 1 1 1 1 0 0 0 1 0 0 0 1 1
1 2 2 2 2 2 2 2 2 1 1 1 1 3 11 2 3 2 1 1 0 0 0 0 1 1 0 0 0 0 0 1 1 1 1 1 0 0 0 0 1 1 1
1 1 1 2 2 4 2 2 2 2 2 1 1 1 3 2 2 2 2 1 0 -0 -0 -0 0 0 -0 -0 -0 -0 0 0 -0 -0 0 0 1 1 1 1 1 1 1
1 1 2 2 2 2 2 2 2 5 2 2 2 1 1 1 1 1 1 1 1 1 -0 -0 -0 -0 -1 -0 -1 -1 -1 -1 -1 -1 1 0 1 1 0 1 1 1 1
1 1 2 2 2 2 2 2 2 2 2 2 2 3 2 1 1 1 1 1 1 1 1 1 0 -1 -1 -1 -1 -1 5 10 1 8 -1 -0 0 0 0 1 1 1 1
2 2 2 2 2 2 2 2 2 2 3 2 2 2 2 2 3 3 1 0 1 1 1 1 1 0 0 -0 -1 3 11 10 4 10 2 -0 0 1 1 0 0 1 1